Location: Mountain Grove
(34.0887°N, 86.6172°W)
Time: 21:58:51
(UTC+00:00)

CZ-2D R/B - Pass Details

Date: 14 July 2020
Orbit: 792 x 844 km, 98.7° (Epoch: 08 August)

Event Time Altitude Azimuth Distance (km) Brightness Sun altitude
Rises 07:27:16 0° 11° (N) 3,352 6.4 -29.9°
Reaches altitude 10° 07:29:36 10° 10° (N) 2,424 5.4 -29.7°
Enters shadow 07:34:24 69° 338° (NNW) 887 2.3 -29.3°
